[[{"header":{"parameterUnit":"m.s-1","parameterCategory":1,"la1":30.2991,"la2":30.254,"lo1":-89.0895,"lo2":-89.0444,"dy":0.0017,"dx":0.0017,"nx":28,"ny":28,"refTime":"2023-08-02T09:00:00:Z","depth":0,"parameterNumber":2,"parameterNumberName":"U-component_of_WINDS"},"data":[0,0,0,0,0,0,0,0,0,0,0,0,0,0,0,0,0,0,0,0,0,0,0,0,0,0,0,0,0,0,0,0,0,0,0,0,0,0,0,0,0,0,0,0,0,0,0,0,0,0,0,0,0,0,0,0,0,0,-1.3188,-1.3188,0,-1.323,-1.323,-1.3231,-1.3229,-1.3228,-1.3228,-1.3227,-1.3268,-1.3269,-1.3271,0,0,0,0,0,0,0,0,0,0,0,0,0,-1.3104,-1.3105,-1.3188,-1.3188,-1.3189,-1.323,-1.323,-1.3231,-1.3229,-1.3228,-1.3227,-1.3227,-1.3267,-1.3269,-1.3271,0,0,0,0,0,0,0,0,0,0,0,0,0,-1.3142,-1.3106,-1.3188,-1.3193,-1.3194,-1.323,-1.323,-1.3231,-1.3229,-1.3228,-1.3227,-1.3226,-1.3267,-1.3269,-1.3271,-1.3304,0,0,-1.3279,-1.328,0,0,0,0,0,0,0,0,-1.314,-1.3146,-1.3192,-1.3193,-1.3194,-1.3223,-1.3216,-1.3255,-1.3229,-1.3216,-1.3227,-1.3226,-1.3254,-1.3257,-1.3267,-1.3306,-1.3308,-1.3279,-1.3281,-1.3282,-1.3282,0,0,0,0,0,0,0,-1.3138,-1.3144,-1.3204,-1.3192,-1.3194,-1.3192,-1.3197,-1.3223,-1.3239,-1.3217,-1.3217,-1.3222,-1.3254,-1.3264,-1.3268,-1.3308,-1.3279,-1.3281,-1.3283,-1.3284,-1.3376,-1.3377,0,0,0,0,0,0,-1.3134,-1.3142,-1.3203,-1.3206,-1.3164,-1.3195,-1.32,-1.3215,-1.3239,-1.3242,-1.3223,-1.3222,-1.3261,-1.3265,-1.3269,-1.3308,-1.3282,-1.3284,-1.3285,-1.3375,-1.3376,-1.3377,0,0,0,0,0,0,-1.3132,-1.314,-1.3201,-1.3174,-1.3181,-1.3197,-1.3214,-1.3216,-1.3226,-1.3243,-1.3246,-1.323,-1.326,-1.3266,-1.3295,-1.331,-1.3285,-1.3287,-1.3374,-1.3375,-1.3377,-1.3388,0,0,0,0,0,0,-1.313,-1.3139,-1.3152,-1.3174,-1.3183,-1.3228,-1.3215,-1.3217,-1.3231,-1.323,-1.3251,-1.3254,-1.326,-1.3292,-1.3298,-1.3313,-1.3289,-1.3373,-1.3374,-1.3376,-1.3386,-1.339,-1.3392,0,0,0,0,0,-1.3127,-1.3153,-1.3153,-1.316,-1.32,-1.3229,-1.3234,-1.3241,-1.3232,-1.3245,-1.3256,-1.3253,-1.3307,-1.3295,-1.3302,-1.3318,-1.3372,-1.3374,-1.3376,-1.3385,-1.3389,-1.3392,0,0,0,0,0,0,-1.3132,-1.3156,-1.3156,-1.3191,-1.3208,-1.3228,-1.3245,-1.3245,-1.3264,-1.3262,-1.327,-1.3274,-1.3304,-1.3314,-1.3299,-1.335,-1.3338,-1.3342,-1.3343,-1.3347,-1.335,-1.3346,-1.3291,0,0,0,0,0,-1.3138,-1.316,-1.3179,-1.3208,-1.3216,-1.3229,-1.3242,-1.3246,-1.3264,-1.3271,-1.3284,-1.33,-1.3321,-1.3334,-1.3354,-1.3388,-1.3392,-1.3402,-1.3405,-1.3407,-1.341,-1.3428,-1.3433,-1.3384,-1.3384,-1.3384,0,0,-1.3148,-1.3164,-1.3178,-1.3209,-1.3223,-1.3245,-1.3235,-1.3259,-1.3275,-1.3274,-1.3303,-1.3313,-1.3332,-1.3364,-1.3378,-1.3373,-1.3425,-1.341,-1.3412,-1.3414,-1.3431,-1.3435,-1.3439,-1.3386,-1.3386,-1.3385,0,0,-1.3179,-1.3194,-1.3219,-1.3233,-1.3254,-1.3263,-1.3269,-1.329,-1.3296,-1.3326,-1.3325,-1.3344,-1.338,-1.3393,-1.3405,-1.3441,-1.3439,-1.3447,-1.3463,-1.348,-1.3483,-1.3487,-1.3499,-1.3503,-1.345,-1.345,-1.345,0,-1.319,-1.3224,-1.3232,-1.3256,-1.3269,-1.327,-1.3295,-1.3308,-1.3334,-1.3343,-1.3337,-1.3381,-1.3394,-1.3429,-1.3437,-1.3447,-1.3453,-1.3444,-1.3482,-1.3486,-1.3489,-1.3501,-1.3505,-1.3451,-1.3451,-1.345,-1.345,0,-1.3235,-1.3259,-1.3277,-1.3303,-1.3318,-1.3342,-1.3353,-1.3368,-1.337,-1.3379,-1.3408,-1.3424,-1.3447,-1.3455,-1.3458,-1.349,-1.3486,-1.3481,-1.3469,-1.3494,-1.3505,-1.351,-1.3452,-1.3452,-1.3451,-1.3451,0,0,-1.3271,-1.3301,-1.3307,-1.3319,-1.3342,-1.336,-1.3384,-1.3407,-1.3419,-1.3437,-1.3457,-1.3487,-1.3483,-1.3496,-1.35,-1.3515,-1.3541,-1.3508,-1.3508,-1.3513,-1.3577,-1.358,-1.3585,-1.3541,-1.3541,-1.3542,-1.3575,0,-1.3304,-1.3347,-1.3355,-1.3392,-1.3413,-1.3414,-1.3435,-1.3451,-1.346,-1.3479,-1.3488,-1.3509,-1.3502,-1.351,-1.3525,-1.3535,-1.3554,-1.3533,-1.3558,-1.3559,-1.3553,-1.3591,-1.3594,-1.3625,-1.3579,-1.358,-1.3581,0,-1.3348,-1.3368,-1.3407,-1.3428,-1.3437,-1.3455,-1.3477,-1.3495,-1.3513,-1.3518,-1.3533,-1.3535,-1.3559,-1.3547,-1.3579,-1.3565,-1.3575,-1.3582,-1.3583,-1.3585,-1.3571,-1.3593,-1.3635,-1.3639,-1.3588,-1.3587,-1.3587,0,-1.3368,-1.3405,-1.3434,-1.3444,-1.3468,-1.3481,-1.3491,-1.3509,-1.3522,-1.3541,-1.3549,-1.357,-1.3581,-1.3597,-1.3605,-1.3595,-1.3637,-1.3625,-1.3641,-1.3641,-1.3649,-1.3648,-1.3692,-1.3657,-1.3657,-1.3657,-1.3657,0,-1.3404,-1.3428,-1.3443,-1.3461,-1.3487,-1.3496,-1.3522,-1.3532,-1.3547,-1.3566,-1.3568,-1.3585,-1.3594,-1.3613,-1.3619,-1.3645,-1.365,-1.3654,-1.3655,-1.3654,-1.3653,-1.366,-1.3658,-1.3658,-1.3658,-1.3658,-1.3657,0,-1.3431,-1.3443,-1.3474,-1.3494,-1.35,-1.3519,-1.3536,-1.3553,-1.3561,-1.3585,-1.3591,-1.3605,-1.3626,-1.3636,-1.3662,-1.3666,-1.3696,-1.3696,-1.369,-1.369,-1.3705,-1.3703,-1.3755,-1.3761,-1.3723,-1.3723,-1.3723,0,-1.3453,-1.3472,-1.3495,-1.3508,-1.3519,-1.354,-1.3554,-1.3562,-1.3576,-1.3598,-1.3612,-1.3634,-1.3652,-1.3687,-1.3698,-1.3719,-1.3719,-1.3735,-1.3722,-1.3719,-1.3718,-1.3717,-1.3718,-1.3737,-1.3738,-1.3738,-1.3738,0,-1.349,-1.3495,-1.3515,-1.3537,-1.3553,-1.3571,-1.3588,-1.3598,-1.3609,-1.3625,-1.3648,-1.3662,-1.3689,-1.3711,-1.3732,-1.3742,-1.3742,-1.3743,-1.3747,-1.3745,-1.3741,-1.3743,-1.3696,-1.3741,-1.3741,-1.3741,-1.3741,-1.374,-1.3515,-1.3531,-1.355,-1.3572,-1.3586,-1.3602,-1.3618,-1.3629,-1.3649,-1.3672,-1.3676,-1.37,-1.3717,-1.3745,-1.3756,-1.3775,-1.377,-1.3777,-1.3779,-1.378,-1.3781,-1.3739,-1.3779,-1.3778,-1.3778,-1.3778,-1.3778,0,-1.3551,-1.3563,-1.3584,-1.3608,-1.3625,-1.3624,-1.3643,-1.3657,-1.3679,-1.3695,-1.3713,-1.3739,-1.376,-1.3773,-1.3794,-1.3806,-1.3806,-1.3811,-1.381,-1.3812,-1.3784,-1.3777,-1.381,-1.381,-1.381,-1.381,-1.381,-1.381,-1.3572,-1.36,-1.3606,-1.3641,-1.3652,-1.3677,-1.3687,-1.3702,-1.3715,-1.3744,-1.3761,-1.377,-1.3785,-1.3807,-1.3826,-1.3829,-1.3836,-1.3841,-1.3844,-1.3818,-1.3814,-1.3811,-1.3805,-1.3843,-1.3843,-1.3871,-1.3871,-1.3871]},{"header":{"parameterUnit":"m.s-1","parameterCategory":1,"la1":30.2991,"la2":30.254,"lo1":-89.0895,"lo2":-89.0444,"dy":0.0017,"dx":0.0017,"nx":28,"ny":28,"refTime":"2023-08-02T09:00:00:Z","depth":0,"parameterNumber":3,"parameterNumberName":"V-component_of_WINDS"},"data":[0,0,0,0,0,0,0,0,0,0,0,0,0,0,0,0,0,0,0,0,0,0,0,0,0,0,0,0,0,0,0,0,0,0,0,0,0,0,0,0,0,0,0,0,0,0,0,0,0,0,0,0,0,0,0,0,0,0,0.4996,0.4998,0,0.5135,0.5137,0.5138,0.522,0.5221,0.5221,0.5221,0.5365,0.5369,0.5372,0,0,0,0,0,0,0,0,0,0,0,0,0,0.4804,0.4807,0.4996,0.4998,0.5,0.5135,0.5137,0.5139,0.522,0.5221,0.5221,0.5221,0.5364,0.5368,0.5373,0,0,0,0,0,0,0,0,0,0,0,0,0,0.491,0.4808,0.4996,0.5056,0.5063,0.5135,0.5137,0.5139,0.522,0.5221,0.5221,0.5222,0.5363,0.5368,0.5373,0.5396,0,0,0.5389,0.5392,0,0,0,0,0,0,0,0,0.4904,0.4917,0.5046,0.5052,0.506,0.5161,0.5122,0.5225,0.522,0.5161,0.5221,0.5222,0.5297,0.5308,0.5333,0.5402,0.5409,0.539,0.5393,0.5395,0.5397,0,0,0,0,0,0,0,0.4896,0.4911,0.5051,0.5048,0.5056,0.5078,0.5093,0.5142,0.5224,0.5166,0.5172,0.5187,0.5301,0.5328,0.5337,0.5411,0.539,0.5394,0.5398,0.54,0.5508,0.5507,0,0,0,0,0,0,0.4879,0.4904,0.5047,0.5055,0.4981,0.5081,0.5098,0.5128,0.5224,0.5239,0.5187,0.5191,0.5318,0.5331,0.5342,0.5376,0.5395,0.54,0.5403,0.5508,0.5508,0.5507,0,0,0,0,0,0,0.4874,0.4891,0.5041,0.4982,0.5002,0.5083,0.5116,0.5131,0.5157,0.524,0.5255,0.5198,0.5319,0.5335,0.5382,0.5382,0.5403,0.5407,0.5508,0.5508,0.5507,0.5442,0,0,0,0,0,0,0.4868,0.4889,0.4897,0.4981,0.5005,0.5077,0.5116,0.5133,0.5166,0.5172,0.5255,0.5269,0.5321,0.5374,0.5387,0.539,0.5412,0.5509,0.5508,0.5508,0.5445,0.544,0.5435,0,0,0,0,0,0.4861,0.4873,0.4897,0.4914,0.5017,0.5077,0.5091,0.515,0.5165,0.5175,0.5229,0.5266,0.538,0.5378,0.5394,0.5398,0.5509,0.5508,0.5508,0.5447,0.5441,0.5435,0,0,0,0,0,0,0.4787,0.4885,0.4913,0.4952,0.5006,0.5091,0.5105,0.5141,0.5192,0.5196,0.5267,0.5285,0.5326,0.5367,0.5363,0.5425,0.5449,0.5451,0.5397,0.5392,0.5387,0.5376,0.5416,0,0,0,0,0,0.4775,0.4815,0.4899,0.4925,0.4951,0.5023,0.5051,0.5092,0.5151,0.5174,0.5231,0.5287,0.5336,0.5366,0.5415,0.5451,0.5471,0.5462,0.5457,0.5453,0.5454,0.5478,0.5475,0.5505,0.5505,0.5505,0,0,0.4751,0.481,0.483,0.4912,0.4958,0.4999,0.5041,0.5082,0.5113,0.518,0.5228,0.5272,0.534,0.5382,0.5403,0.5417,0.5451,0.5452,0.5448,0.5452,0.5477,0.5474,0.5471,0.5505,0.5505,0.5505,0,0,0.4728,0.4776,0.4804,0.4849,0.4919,0.4967,0.4974,0.5054,0.5086,0.5135,0.5187,0.5226,0.5307,0.5354,0.5388,0.5384,0.5421,0.5398,0.5373,0.5396,0.5393,0.5392,0.5391,0.539,0.5399,0.5399,0.5399,0,0.4689,0.4751,0.4813,0.4852,0.4887,0.4949,0.4979,0.5021,0.5103,0.5126,0.514,0.5245,0.5295,0.535,0.5349,0.5374,0.5385,0.5389,0.5388,0.5387,0.5387,0.5387,0.5387,0.5396,0.5396,0.5397,0.5397,0,0.4701,0.4743,0.4758,0.4836,0.4872,0.4906,0.4974,0.5004,0.5042,0.5089,0.514,0.5202,0.5266,0.5282,0.5319,0.5342,0.5349,0.5375,0.54,0.538,0.5381,0.5382,0.5391,0.5392,0.5393,0.5394,0,0,0.4634,0.4746,0.4751,0.4787,0.487,0.4904,0.4941,0.5003,0.5028,0.5083,0.5117,0.5185,0.5211,0.5249,0.5293,0.5312,0.5307,0.5337,0.5339,0.533,0.5338,0.5318,0.5317,0.5332,0.5332,0.5333,0.5332,0,0.4623,0.4692,0.475,0.4798,0.4839,0.49,0.4933,0.4987,0.5032,0.5075,0.5126,0.5173,0.5202,0.5226,0.5248,0.5303,0.531,0.5304,0.5366,0.5367,0.5347,0.5318,0.5297,0.5293,0.5333,0.5334,0.5334,0,0.4619,0.4672,0.4724,0.4803,0.4823,0.4851,0.4913,0.4952,0.5016,0.5048,0.5092,0.5138,0.5181,0.5202,0.5264,0.5258,0.5288,0.5318,0.532,0.5328,0.5349,0.5326,0.5294,0.5293,0.5335,0.5335,0.5335,0,0.4566,0.465,0.4693,0.4722,0.4815,0.4834,0.4874,0.4939,0.4973,0.5027,0.5051,0.5109,0.5142,0.5187,0.5248,0.5257,0.5304,0.533,0.5333,0.5332,0.534,0.5339,0.5312,0.5358,0.5358,0.5358,0.5358,0,0.4548,0.4578,0.467,0.4696,0.4732,0.4799,0.4832,0.4878,0.4935,0.4972,0.5028,0.5062,0.514,0.5184,0.5232,0.5277,0.5291,0.5319,0.5331,0.5314,0.531,0.5334,0.5336,0.5358,0.5358,0.5358,0.5358,0,0.4495,0.4557,0.4608,0.4692,0.4715,0.4737,0.481,0.4839,0.4888,0.4934,0.4949,0.5026,0.508,0.5146,0.5221,0.5254,0.5294,0.5313,0.5272,0.528,0.528,0.5279,0.5268,0.5271,0.5313,0.5312,0.5312,0,0.4479,0.4503,0.4591,0.4619,0.4658,0.4703,0.4738,0.4806,0.484,0.4916,0.4935,0.4994,0.5045,0.5129,0.5192,0.5251,0.5272,0.5264,0.5281,0.5263,0.5273,0.5271,0.5274,0.5259,0.5258,0.5258,0.5257,0,0.4445,0.4475,0.4523,0.4583,0.4623,0.4673,0.4726,0.4746,0.4825,0.4861,0.4917,0.4956,0.5034,0.5092,0.5159,0.5202,0.5243,0.5251,0.5256,0.5238,0.5214,0.5228,0.5261,0.5251,0.5252,0.5252,0.5253,0.5253,0.4411,0.4436,0.4502,0.4554,0.4601,0.4649,0.468,0.4733,0.4781,0.4849,0.4887,0.4942,0.5008,0.5102,0.5143,0.5189,0.5203,0.5208,0.521,0.5211,0.5206,0.5206,0.5201,0.5201,0.5201,0.5202,0.5202,0,0.4381,0.4426,0.4474,0.4546,0.4587,0.4622,0.4683,0.4715,0.4763,0.482,0.4869,0.4935,0.4992,0.506,0.5122,0.5145,0.5166,0.5159,0.5159,0.5168,0.5189,0.5179,0.5142,0.5142,0.5142,0.5142,0.5142,0.5142,0.437,0.4414,0.4452,0.4521,0.4568,0.4622,0.4654,0.4699,0.4745,0.4816,0.4863,0.4907,0.497,0.5037,0.5091,0.511,0.5131,0.5119,0.5143,0.5161,0.5166,0.5171,0.5163,0.5122,0.5122,0.5119,0.5119,0.5119]}]]